{"data":{"norad_id":64189,"epoch":"2026-09-19T11:54:43.820928Z","epoch_age_seconds":227138,"freshness":"STALE","line1":"1 64189U 25113V   26262.49634052  .00020245  00000+0  60848-3 0  9992","line2":"2 64189  53.1584 266.2470 0000479 318.4615  41.6351 15.34411328 74767","mean_motion":15.34411328,"eccentricity":4.79e-5,"inclination_deg":53.1584,"raan_deg":266.247,"arg_perigee_deg":318.4615,"mean_anomaly_deg":41.6351,"bstar":0.00060848,"rev_number":7476,"period_min":93.847065237516,"perigee_km":462.34189657622,"apogee_km":462.99724584574,"semimajor_km":6840.806571211,"source":"CELESTRAK","updated_at":"2026-09-21T09:00:35.267767Z"}}